Walvis Bay Airport

Jump to: basic info | weather | frequencies | runways | comments

Related pages: nearby airports | nearby navaids | notams | map

Basic information (top)

Codes: WVB FYWB
Location: lon -22.979900, lat 14.645300, elev 299 ft / 91 m msl
Status: medium_airport
Scheduled airline service: no
Links: Wikipedia Mobile

Weather (top)

Current conditions (rec'd 2014/10/25 08:00Z):

FYWB 250800Z 02009KT 9999 BKN017 14/10 Q1017

Airport forecast (rec'd 2014/10/22 06:42Z):

TAF TAF FYWB 220400Z 2206/2312 03005KT 5000 BR OVC010 
      BECMG 2207/2209 33007KT 9999 BKN015 
     FM221000 23015KT CAVOK 
      BECMG 2217/2219 24005KT 
      BECMG 2219/2221 04003KT 9999 OVC010 
      TEMPO 2221/2307 0900 FG 
      BECMG 2308/2310 20010KT 9999 NSW BKN015

Frequencies (top)

Verify before use: may be inaccurate or out of date.

APP: 122.5 MHz (APP)
TWR: 122.5 MHz (TWR)

Runways (top)

09/27: 7,001 x 98 ft (2,134 x 30 m) — paved — lighted

Latest comments (top)

No comments yet for Walvis Bay Airport

More... (top)

See also NOTAMs and nearby airports and navaids, or visit the Walvis Bay Airport page at the main OurAirports website..